Location: Bidart
(43.4376°N, 1.5913°W)
Time: 07:26:01
(UTC+00:00)

Cosmos 2341 Rocket - Pass Details

Date: 19 May 2025
Orbit: 966 x 1004 km, 82.9° (Epoch: 18 June)

Event Time Altitude Azimuth Distance (km) Brightness Sun altitude
Rises 21:39:03 0° 351° (N) 3,690 8.2 -18.5°
Reaches altitude 10° 21:41:35 10° 350° (N) 2,733 7.3 -18.8°
Maximum altitude 21:47:51 82° 264° (W) 986 4.0 -19.4°
Enters shadow 21:51:18 28° 180° (S) 1,721 4.8 -19.8°
